period_start,C,m1,H,J0,J1,J2,J3,J4,J5,JA,JB,JC,JD,JJ,JK,JN,#
2018-04-17 00:03:57,0.14,7.33,0.00,28.65,31.46,34.22,13.56,48.90,1010.27,2005.00,1493.13,1702.88,1951.47,600.14,581.46,43.28,0000 0000 0000 0000 000000
2018-04-17 00:08:58,0.14,7.34,0.00,28.67,31.47,34.23,13.59,48.92,1010.27,2005.00,1492.10,1702.03,1950.38,599.67,580.98,43.33,0000 0000 0000 0000 000000
2018-04-17 00:13:59,0.16,7.34,0.00,28.69,31.49,34.24,13.58,48.83,1010.28,2005.00,1491.03,1701.14,1949.41,599.72,580.92,43.38,0000 0000 0000 0000 000000
2018-04-17 00:19:01,0.15,7.35,0.00,28.71,31.50,34.25,13.62,48.93,1010.29,2004.99,1490.04,1700.31,1948.43,600.08,581.19,43.43,0000 0000 0000 0000 000000
2018-04-17 00:24:02,0.15,7.36,0.00,28.75,31.52,34.25,13.61,48.95,1010.29,2004.97,1489.04,1699.43,1947.40,599.85,580.90,43.48,0000 0000 0000 0000 000000
2018-04-17 00:29:03,0.14,7.37,0.00,28.77,31.53,34.25,13.59,48.98,1010.29,2004.95,1487.98,1698.64,1946.36,600.07,581.08,43.53,0000 0000 0000 0000 000000
2018-04-17 00:34:05,0.19,7.37,0.00,28.79,31.55,34.28,13.54,48.89,1010.28,2004.82,1486.57,1697.58,1945.27,600.22,581.12,43.58,0000 0000 0000 0000 000000
2018-04-17 00:39:06,0.07,7.38,0.00,28.82,31.57,34.28,13.55,48.96,1010.27,2004.35,1485.56,1696.69,1944.16,599.99,580.85,43.63,0000 0000 0000 0000 000000
2018-04-17 00:44:07,0.11,7.39,0.00,28.86,31.58,34.31,13.57,48.93,1010.27,2004.11,1484.58,1695.91,1943.20,600.06,580.98,43.68,0000 0000 0000 0000 000000
2018-04-17 00:49:09,0.14,7.39,0.00,28.89,31.60,34.31,13.58,48.87,1010.27,2004.07,1483.60,1695.03,1942.20,600.02,580.63,43.73,0000 0000 0000 0000 000000
2018-04-17 00:54:10,0.16,7.40,0.00,28.92,31.61,34.34,13.56,48.92,1010.27,2004.02,1482.47,1694.10,1941.15,600.27,580.99,43.78,0000 0000 0000 0000 000000
2018-04-17 00:59:11,0.16,7.41,0.00,28.97,31.62,34.35,13.52,49.01,1010.27,2004.01,1481.36,1693.17,1940.10,600.07,580.70,43.83,0000 0000 0000 0000 000000
2018-04-17 01:04:12,0.16,7.42,0.00,29.01,31.65,34.37,13.59,48.94,1010.27,2004.00,1480.27,1692.32,1939.05,600.06,580.58,43.88,0000 0000 0000 0000 000000
2018-04-17 01:09:13,0.16,7.43,0.00,29.08,31.66,34.37,13.50,48.92,1010.27,2004.00,1479.13,1691.42,1938.02,599.66,580.15,43.93,0000 0000 0000 0000 000000
2018-04-17 01:14:14,0.17,7.43,0.00,29.12,31.67,34.39,13.55,48.97,1010.27,2004.00,1477.95,1690.57,1936.94,599.77,580.11,43.98,0000 0000 0000 0000 000000
2018-04-17 01:19:16,0.16,7.44,0.00,29.17,31.70,34.42,13.62,49.00,1010.27,2003.98,1476.82,1689.65,1935.86,599.99,580.21,44.04,0000 0000 0000 0000 000000
2018-04-17 01:24:17,0.14,7.45,0.00,29.23,31.72,34.45,13.60,48.98,1010.28,2003.96,1475.77,1688.82,1934.84,600.22,580.23,44.09,0000 0000 0000 0000 000000
2018-04-17 01:29:18,0.16,7.46,0.00,29.28,31.74,34.46,13.49,48.85,1010.28,2003.92,1474.72,1687.91,1933.77,599.91,579.94,44.14,0000 0000 0000 0000 000000
2018-04-17 01:34:20,0.13,7.46,0.00,29.32,31.76,34.48,13.54,48.85,1010.31,2003.66,1473.62,1687.01,1932.68,599.74,579.88,44.19,0000 0000 0000 0000 000000
2018-04-17 01:39:21,0.10,7.47,0.00,29.37,31.78,34.50,13.50,48.77,1010.32,2003.32,1472.62,1686.12,1931.70,600.19,580.04,44.24,0000 0000 0000 0000 000000
2018-04-17 01:44:23,0.12,7.48,0.00,29.40,31.81,34.54,13.57,48.77,1010.30,2003.21,1471.78,1685.27,1930.75,600.05,579.90,44.29,0000 0000 0000 0000 000000
2018-04-17 01:49:24,0.15,7.48,0.00,29.40,31.83,34.56,13.53,48.75,1010.29,2003.05,1470.73,1684.37,1929.65,600.13,579.95,44.34,0000 0000 0000 0000 000000
2018-04-17 01:54:26,0.17,7.49,0.00,29.41,31.86,34.59,13.55,48.83,1010.41,2003.00,1469.61,1683.43,1928.51,600.26,580.09,44.39,0000 0000 0000 0000 000000
2018-04-17 01:59:27,0.16,7.50,0.00,29.43,31.88,34.63,13.51,48.82,1010.61,2003.00,1468.42,1682.49,1927.42,599.91,579.70,44.44,0000 0000 0000 0000 000000
2018-04-17 02:04:28,0.17,7.51,0.00,29.48,31.91,34.65,13.52,48.80,1010.60,2003.00,1467.16,1681.48,1926.25,600.03,579.90,44.49,0000 0000 0000 0000 000000
2018-04-17 02:09:29,0.14,7.52,0.00,29.53,31.94,34.67,13.57,48.85,1010.39,2002.96,1466.11,1680.57,1925.17,600.18,579.89,44.54,0000 0000 0000 0000 000000
2018-04-17 02:14:31,0.12,7.53,0.00,29.56,31.96,34.70,13.51,48.71,1010.71,2002.76,1465.02,1679.67,1924.03,599.99,579.75,44.59,0000 0000 0000 0000 000000
2018-04-17 02:19:32,0.09,7.53,0.00,29.58,31.99,34.74,13.51,48.63,1010.68,2002.40,1464.05,1678.80,1923.02,600.38,580.12,44.64,0000 0000 0000 0000 000000
2018-04-17 02:24:33,0.12,7.54,0.00,29.62,32.02,34.77,13.52,48.62,1010.74,2002.11,1463.00,1677.91,1921.99,599.82,579.46,44.69,0000 0000 0000 0000 000000
2018-04-17 02:29:34,0.16,7.55,0.00,29.66,32.05,34.80,13.63,48.82,1010.74,2002.04,1461.91,1677.02,1920.96,600.14,579.74,44.74,0000 0000 0000 0000 000000
2018-04-17 02:34:35,0.14,7.55,0.00,29.69,32.08,34.83,13.46,48.80,1010.72,2002.01,1460.97,1676.12,1920.00,599.68,579.11,44.79,0000 0000 0000 0000 000000
2018-04-17 02:39:37,0.17,7.56,0.00,29.73,32.11,34.87,13.51,48.79,1010.73,2002.00,1459.93,1675.24,1919.01,599.66,579.19,44.84,0000 0000 0000 0000 000000
2018-04-17 02:44:38,0.18,7.57,0.00,29.80,32.14,34.88,13.52,48.78,1010.76,2001.98,1458.81,1674.27,1917.88,599.99,579.25,44.90,0000 0000 0000 0000 000000
2018-04-17 02:49:39,0.17,7.58,0.00,29.85,32.17,34.92,13.45,48.72,1010.75,2001.91,1457.69,1673.30,1916.74,599.83,579.13,44.95,0000 0000 0000 0000 000000
2018-04-17 02:54:41,0.09,7.58,0.00,29.92,32.21,34.95,13.47,48.72,1010.76,2001.51,1456.72,1672.45,1915.68,599.62,578.72,45.00,0000 0000 0000 0000 000000
2018-04-17 02:59:42,0.13,7.59,0.00,29.95,32.24,34.98,13.54,48.69,1010.77,2001.21,1455.66,1671.54,1914.61,600.14,578.96,45.05,0000 0000 0000 0000 000000
2018-04-17 03:04:43,0.16,7.59,0.00,29.98,32.28,35.01,13.49,48.79,1010.77,2001.04,1454.49,1670.61,1913.53,599.94,578.95,45.10,0000 0000 0000 0000 000000
2018-04-17 03:09:45,0.15,7.60,0.00,30.03,32.31,35.04,13.49,48.79,1010.78,2001.00,1453.34,1669.75,1912.49,599.91,578.78,45.15,0000 0000 0000 0000 000000
2018-04-17 03:14:46,0.14,7.61,0.00,30.04,32.35,35.08,13.52,48.76,1010.81,2001.00,1452.30,1668.90,1911.50,600.02,579.04,45.20,0000 0000 0000 0000 000000
2018-04-17 03:19:47,0.14,7.62,0.00,30.06,32.38,35.12,13.44,48.72,1010.90,2000.98,1451.40,1668.05,1910.49,600.41,579.31,45.25,0000 0000 0000 0000 000000
2018-04-17 03:24:49,0.14,7.63,0.00,30.07,32.41,35.16,13.54,48.55,1011.09,2000.90,1450.49,1667.19,1909.57,600.43,579.34,45.30,0000 0000 0000 0000 000000
2018-04-17 03:29:50,0.06,7.63,0.00,30.09,32.45,35.18,13.52,48.62,1011.09,2000.41,1449.66,1666.51,1908.67,600.30,579.32,45.35,0000 0000 0000 0000 000000
2018-04-17 03:34:51,0.05,7.63,0.00,30.12,32.48,35.22,13.55,48.66,1010.91,2000.13,1448.90,1665.88,1907.89,600.01,578.99,45.40,0000 0000 0000 0000 000000
2018-04-17 03:39:53,0.13,7.64,0.00,30.15,32.51,35.26,13.52,48.58,1010.77,2000.02,1448.03,1665.06,1907.03,599.76,578.62,45.45,0000 0000 0000 0000 000000
2018-04-17 03:44:54,0.15,7.65,0.00,30.15,32.54,35.31,13.48,48.65,1010.77,2000.00,1447.18,1664.43,1906.16,600.05,578.70,45.50,0000 0000 0000 0000 000000
2018-04-17 03:49:56,0.12,7.65,0.00,30.18,32.57,35.33,13.54,48.73,1010.77,2000.00,1446.34,1663.82,1905.37,600.25,578.84,45.55,0000 0000 0000 0000 000000
2018-04-17 03:54:57,0.14,7.66,0.00,30.22,32.60,35.36,13.46,48.67,1010.76,1999.98,1445.44,1663.03,1904.50,600.12,578.66,45.60,0000 0000 0000 0000 000000
2018-04-17 03:59:59,0.20,7.67,0.00,30.23,32.63,35.39,13.54,48.63,1010.76,1999.95,1443.87,1662.16,1903.49,600.17,578.56,45.65,0000 0000 0000 0000 000000
2018-04-17 04:05:00,0.22,7.68,0.00,30.26,32.66,35.43,13.46,48.63,1010.76,1999.71,1441.65,1661.01,1902.02,599.67,578.20,45.70,0000 0000 0000 0000 000000
2018-04-17 04:10:01,0.12,7.69,0.00,30.27,32.69,35.45,13.47,48.59,1010.76,1999.42,1440.46,1660.12,1901.04,599.96,578.28,45.75,0000 0000 0000 0000 000000
2018-04-17 04:15:03,0.11,7.69,0.00,30.31,32.71,35.47,13.50,48.61,1010.76,1999.11,1439.48,1659.39,1900.12,600.20,578.48,45.81,0000 0000 0000 0000 000000
2018-04-17 04:20:04,0.19,7.70,0.00,30.33,32.74,35.50,13.50,48.58,1010.76,1999.01,1438.19,1658.39,1898.94,600.13,578.46,45.86,0000 0000 0000 0000 000000
2018-04-17 04:25:05,0.33,7.72,0.00,30.35,32.77,35.53,13.51,48.69,1010.76,1999.00,1435.98,1656.71,1897.06,600.07,578.38,45.91,0000 0000 0000 0000 000000
2018-04-17 04:30:07,0.18,7.73,0.00,30.38,32.80,35.56,13.52,48.63,1010.76,1999.00,1434.52,1655.68,1895.80,600.15,578.34,45.96,0000 0000 0000 0000 000000
2018-04-17 04:35:08,0.18,7.74,0.00,30.40,32.82,35.59,13.40,48.49,1010.75,1998.95,1433.26,1654.68,1894.65,599.94,578.09,46.01,0000 0000 0000 0000 000000
2018-04-17 04:40:09,0.09,7.74,0.00,30.41,32.85,35.61,13.52,48.65,1010.50,1998.74,1432.26,1653.92,1893.73,599.80,577.80,46.06,0000 0000 0000 0000 000000
2018-04-17 04:45:11,0.07,7.75,0.00,30.42,32.88,35.64,13.48,48.52,1010.71,1998.29,1431.33,1653.07,1892.84,600.23,578.22,46.11,0000 0000 0000 0000 000000
2018-04-17 04:50:12,0.20,7.75,0.00,30.44,32.91,35.66,13.46,48.59,1010.75,1998.10,1430.08,1652.23,1891.60,599.92,578.24,46.16,0000 0000 0000 0000 000000
2018-04-17 04:55:13,0.16,7.77,0.00,30.46,32.93,35.69,13.48,48.47,1010.54,1998.01,1428.79,1651.08,1890.46,600.48,578.38,46.21,0000 0000 0000 0000 000000
2018-04-17 05:00:15,0.12,7.77,0.00,30.47,32.96,35.72,13.45,48.58,1010.32,1998.00,1428.03,1650.36,1889.74,600.08,577.83,46.26,0000 0000 0000 0000 000000
2018-04-17 05:05:15,0.09,7.78,0.00,30.48,32.98,35.74,13.37,48.52,1010.32,1998.00,1427.36,1649.94,1889.03,600.00,577.75,46.31,0000 0000 0000 0000 000000
2018-04-17 05:10:17,0.11,7.78,0.00,30.50,33.00,35.77,13.48,48.51,1010.28,1997.99,1426.86,1649.22,1888.30,600.30,578.02,46.36,0000 0000 0000 0000 000000
2018-04-17 05:15:18,0.06,7.79,0.00,30.54,33.03,35.80,13.46,48.48,1010.29,1997.97,1426.08,1648.93,1887.87,599.92,577.51,46.41,0000 0000 0000 0000 000000
2018-04-17 05:20:19,0.13,7.79,0.00,30.55,33.06,35.81,13.45,48.52,1010.28,1997.89,1425.50,1648.16,1887.08,600.42,577.97,46.46,0000 0000 0000 0000 000000
2018-04-17 05:25:21,0.04,7.80,0.00,30.59,33.08,35.84,13.47,48.48,1010.27,1997.63,1424.92,1647.77,1886.27,600.15,577.56,46.51,0000 0000 0000 0000 000000
2018-04-17 05:30:22,0.06,7.80,0.00,30.59,33.11,35.87,13.51,48.54,1010.27,1997.20,1424.11,1647.03,1885.62,600.17,577.80,46.56,0000 0000 0000 0000 000000
2018-04-17 05:35:24,0.14,7.81,0.00,30.60,33.13,35.89,13.51,48.48,1010.24,1997.05,1423.27,1646.21,1884.63,600.15,577.63,46.61,0000 0000 0000 0000 000000
2018-04-17 05:40:25,0.13,7.81,0.00,30.61,33.15,35.91,13.44,48.52,1010.16,1997.00,1422.39,1645.49,1883.83,600.01,577.46,46.67,0000 0000 0000 0000 000000
2018-04-17 05:45:26,0.07,7.82,0.00,30.63,33.18,35.93,13.46,48.56,1010.23,1997.00,1421.81,1644.94,1883.05,599.86,577.33,46.72,0000 0000 0000 0000 000000
2018-04-17 05:50:28,0.14,7.83,0.00,30.66,33.20,35.95,13.55,48.46,1010.24,1997.00,1421.05,1644.19,1882.27,600.25,577.53,46.77,0000 0000 0000 0000 000000
2018-04-17 05:55:29,0.10,7.83,0.00,30.67,33.22,35.98,13.43,48.38,1010.23,1996.99,1420.30,1643.82,1881.75,599.78,577.12,46.82,0000 0000 0000 0000 000000
2018-04-17 06:00:30,0.08,7.83,0.00,30.69,33.25,36.00,13.47,48.48,1010.18,1996.94,1419.82,1643.06,1881.03,600.01,577.25,46.87,0000 0000 0000 0000 000000
2018-04-17 06:05:31,0.08,7.84,0.00,30.73,33.27,36.02,13.43,48.46,1010.18,1996.71,1419.05,1642.65,1880.22,599.75,577.05,46.92,0000 0000 0000 0000 000000
2018-04-17 06:10:32,0.05,7.84,0.00,30.75,33.29,36.03,13.52,48.41,1010.24,1996.43,1418.43,1642.03,1879.84,600.10,577.34,46.97,0000 0000 0000 0000 000000
2018-04-17 06:15:33,0.07,7.84,0.00,30.78,33.31,36.06,13.40,48.36,1010.27,1996.25,1417.86,1641.69,1879.09,600.07,577.29,47.02,0000 0000 0000 0000 000000
2018-04-17 06:20:34,0.13,7.85,0.00,30.78,33.34,36.08,13.44,48.44,1010.26,1996.12,1416.83,1640.85,1878.23,600.03,577.21,47.07,0000 0000 0000 0000 000000
2018-04-17 06:25:36,0.15,7.86,0.00,30.81,33.36,36.10,13.47,48.33,1010.26,1996.02,1415.74,1640.01,1877.20,599.82,577.07,47.12,0000 0000 0000 0000 000000
2018-04-17 06:30:37,0.12,7.87,0.00,30.82,33.38,36.12,13.50,48.27,1010.27,1996.00,1414.96,1639.23,1876.44,599.87,577.06,47.17,0000 0000 0000 0000 000000
2018-04-17 06:35:38,0.14,7.87,0.00,30.84,33.40,36.14,13.54,48.38,1010.27,1996.00,1414.11,1638.60,1875.64,600.33,577.50,47.22,0000 0000 0000 0000 000000
2018-04-17 06:40:40,0.10,7.88,0.00,30.85,33.42,36.17,13.47,48.35,1010.26,1996.00,1413.27,1637.96,1874.86,600.17,577.18,47.27,0000 0000 0000 0000 000000
2018-04-17 06:45:41,0.14,7.88,0.00,30.89,33.45,36.18,13.43,48.44,1010.27,1995.97,1412.52,1637.14,1873.99,600.10,577.01,47.32,0000 0000 0000 0000 000000
2018-04-17 06:50:43,0.15,7.89,0.00,30.92,33.47,36.21,13.45,48.42,1010.22,1995.92,1411.60,1636.43,1873.09,600.20,576.96,47.37,0000 0000 0000 0000 000000
2018-04-17 06:55:44,0.08,7.90,0.00,30.93,33.50,36.23,13.44,48.33,1009.98,1995.67,1410.68,1635.75,1872.22,600.10,576.74,47.42,0000 0000 0000 0000 000000
2018-04-17 07:00:45,0.04,7.90,0.00,30.95,33.52,36.25,13.44,48.42,1009.89,1995.24,1409.97,1635.02,1871.39,600.15,576.78,47.47,0000 0000 0000 0000 000000
2018-04-17 07:05:47,0.13,7.91,0.00,30.97,33.55,36.28,13.43,48.38,1009.98,1995.08,1409.15,1634.25,1870.71,599.67,576.47,47.52,0000 0000 0000 0000 000000
2018-04-17 07:10:48,0.10,7.91,0.00,30.82,33.57,36.31,13.48,48.52,1009.94,1995.00,1408.36,1633.76,1869.94,599.98,576.86,47.57,0000 0000 0000 0000 000000
2018-04-17 07:15:50,0.11,7.92,0.00,30.69,33.59,36.34,13.42,48.46,1010.02,1995.00,1407.68,1633.04,1869.09,600.35,577.55,47.63,0000 0000 0000 0000 000000
2018-04-17 07:20:51,0.13,7.92,0.00,30.42,33.60,36.39,13.54,48.50,1010.19,1995.00,1406.88,1632.51,1868.46,600.50,578.34,47.68,0000 0000 0000 0000 000000
2018-04-17 07:25:52,0.08,7.93,0.00,30.28,33.60,36.52,13.51,48.52,1010.24,1995.00,1406.05,1632.00,1867.88,599.78,577.91,47.73,0000 0000 0000 0000 000000
2018-04-17 07:30:54,0.13,7.93,0.00,30.21,33.57,36.55,13.54,48.46,1010.26,1995.00,1405.27,1631.57,1867.11,599.88,578.12,47.78,0000 0000 0000 0000 000000
2018-04-17 07:35:55,0.05,7.94,0.00,30.02,33.53,36.44,13.56,48.55,1010.27,1995.00,1404.83,1631.02,1866.89,599.90,578.48,47.83,0000 0000 0000 0000 000000
2018-04-17 07:40:56,0.09,7.94,0.00,29.86,33.48,36.30,13.50,48.47,1010.27,1995.05,1404.05,1630.93,1866.13,599.71,578.73,47.88,0000 0000 0000 0000 000000
2018-04-17 07:45:58,0.22,7.95,0.00,29.70,33.41,36.14,13.58,48.50,1010.27,1995.65,1403.48,1630.32,1865.99,600.13,579.32,47.93,0000 0000 0000 0000 000000
2018-04-17 07:50:59,0.06,7.96,0.00,29.56,33.35,35.96,13.64,48.77,1010.27,1995.98,1402.95,1630.01,1865.46,600.23,579.69,47.98,0000 0000 0000 0000 000000
2018-04-17 07:56:01,0.07,7.96,0.00,29.56,33.28,35.88,13.59,48.64,1010.27,1996.00,1402.16,1629.96,1865.02,600.35,579.79,48.03,0000 0000 0000 0000 000000
2018-04-17 08:01:02,0.11,7.97,0.00,29.59,33.22,35.83,13.54,48.71,1010.27,1996.05,1401.77,1629.28,1864.68,599.79,579.31,48.08,0000 0000 0000 0000 000000
2018-04-17 08:06:03,0.14,7.97,0.00,29.66,33.16,35.81,13.59,48.76,1010.27,1996.51,1401.08,1629.00,1864.05,599.88,579.19,48.13,0000 0000 0000 0000 000000
2018-04-17 08:11:05,0.04,7.98,0.00,29.72,33.11,35.77,13.49,48.77,1010.27,1996.94,1400.91,1628.97,1863.99,599.67,578.92,48.18,0000 0000 0000 0000 000000
2018-04-17 08:16:06,0.13,7.98,0.00,29.78,33.07,35.76,13.50,48.77,1010.27,1996.99,1400.28,1628.48,1863.53,599.74,578.90,48.23,0000 0000 0000 0000 000000
2018-04-17 08:21:07,0.03,7.99,0.00,29.82,33.03,35.70,13.48,48.78,1010.27,1996.99,1399.96,1628.01,1863.01,599.88,578.85,48.28,0000 0000 0000 0000 000000
2018-04-17 08:26:08,0.07,7.99,0.00,29.85,33.00,35.56,13.44,48.73,1010.27,1996.99,1399.32,1627.99,1862.77,600.06,579.04,48.33,0000 0000 0000 0000 000000
2018-04-17 08:31:09,0.09,7.99,0.00,29.87,32.98,35.52,13.44,48.63,1010.27,1997.04,1398.95,1627.50,1862.08,599.66,578.57,48.38,0000 0000 0000 0000 000000
2018-04-17 08:36:11,0.07,8.00,0.00,29.90,32.96,35.50,13.58,48.68,1010.27,1997.12,1398.48,1627.02,1861.98,600.40,579.17,48.43,0000 0000 0000 0000 000000
2018-04-17 08:41:12,0.07,8.00,0.00,29.92,32.95,35.51,13.57,48.78,1010.25,1997.28,1398.01,1626.98,1861.33,600.12,578.83,48.48,0000 0000 0000 0000 000000
2018-04-17 08:46:13,0.13,8.01,0.00,29.95,32.94,35.51,13.52,48.59,1010.22,1997.55,1397.66,1626.44,1861.00,600.18,578.88,48.54,0000 0000 0000 0000 000000
2018-04-17 08:51:14,0.08,8.01,0.00,29.94,32.92,35.52,13.59,48.70,1010.23,1997.74,1397.03,1626.02,1860.63,600.27,578.94,48.59,0000 0000 0000 0000 000000
2018-04-17 08:56:16,0.06,8.02,0.00,29.96,32.92,35.53,13.54,48.58,1010.23,1997.88,1396.81,1625.96,1860.03,600.04,578.77,48.64,0000 0000 0000 0000 000000
2018-04-17 09:01:17,0.10,8.02,0.00,29.95,32.92,35.54,13.54,48.50,1010.25,1997.94,1396.08,1625.30,1859.91,600.11,578.81,48.69,0000 0000 0000 0000 000000
2018-04-17 09:06:18,0.04,8.03,0.00,29.95,32.92,35.55,13.52,48.58,1010.25,1997.94,1395.92,1625.00,1859.15,600.06,578.75,48.74,0000 0000 0000 0000 000000
2018-04-17 09:11:19,0.07,8.03,0.00,29.97,32.92,35.56,13.54,48.52,1010.26,1997.96,1395.11,1624.91,1858.97,599.97,578.73,48.79,0000 0000 0000 0000 000000
2018-04-17 09:16:21,0.09,8.03,0.00,29.97,32.92,35.57,13.49,48.46,1010.23,1997.98,1394.93,1624.23,1858.33,600.05,578.73,48.84,0000 0000 0000 0000 000000
2018-04-17 09:21:22,0.06,8.04,0.00,29.96,32.92,35.58,13.47,48.57,1010.16,1997.96,1394.18,1624.00,1858.00,600.12,578.64,48.89,0000 0000 0000 0000 000000
2018-04-17 09:26:23,0.06,8.04,0.00,29.95,32.92,35.58,13.51,48.65,1010.24,1997.96,1393.95,1623.74,1857.47,600.18,578.87,48.94,0000 0000 0000 0000 000000
2018-04-17 09:31:24,0.10,8.05,0.00,29.96,32.92,35.60,13.44,48.48,1010.27,1997.98,1393.31,1623.07,1857.01,599.82,578.52,48.99,0000 0000 0000 0000 000000
2018-04-17 09:36:25,0.03,8.05,0.00,29.96,32.92,35.61,13.41,48.52,1010.26,1997.95,1392.96,1622.96,1856.69,599.63,578.32,49.04,0000 0000 0000 0000 000000
2018-04-17 09:41:26,0.14,8.05,0.00,29.95,32.92,35.61,13.50,48.53,1010.21,1997.97,1392.15,1622.20,1856.02,599.74,578.54,49.09,0000 0000 0000 0000 000000
2018-04-17 09:46:28,0.10,8.06,0.00,29.95,32.92,35.62,13.53,48.58,1010.03,1997.96,1391.58,1621.86,1855.32,599.88,578.35,49.14,0000 0000 0000 0000 000000
2018-04-17 09:51:29,0.15,8.07,0.00,29.93,32.92,35.63,13.51,48.52,1009.99,1997.97,1390.40,1621.05,1854.71,600.29,578.79,49.19,0000 0000 0000 0000 000000
2018-04-17 09:56:30,0.05,8.07,0.00,29.90,32.92,35.62,13.42,48.55,1009.86,1997.99,1389.99,1620.79,1854.04,599.86,578.56,49.24,0000 0000 0000 0000 000000
2018-04-17 10:01:32,0.13,8.08,0.00,29.90,32.92,35.62,13.53,48.53,1009.83,1997.99,1389.28,1620.07,1853.63,600.06,578.64,49.29,0000 0000 0000 0000 000000
2018-04-17 10:06:33,0.04,8.08,0.00,29.88,32.92,35.62,13.56,48.58,1009.80,1997.97,1388.83,1619.85,1853.00,600.00,578.57,49.34,0000 0000 0000 0000 000000
2018-04-17 10:11:34,0.16,8.09,0.00,29.86,32.92,35.63,13.48,48.58,1009.80,1997.98,1387.91,1619.06,1852.18,600.15,578.85,49.40,0000 0000 0000 0000 000000
2018-04-17 10:16:36,0.15,8.09,0.00,29.83,32.92,35.63,13.55,48.63,1009.79,1997.97,1387.00,1618.35,1851.43,600.10,578.67,49.45,0000 0000 0000 0000 000000
2018-04-17 10:21:37,0.07,8.10,0.00,29.83,32.92,35.64,13.39,48.52,1009.79,1997.99,1386.15,1617.98,1850.95,599.46,578.35,49.50,0000 0000 0000 0000 000000
2018-04-17 10:26:38,0.13,8.10,0.00,29.79,32.91,35.63,13.53,48.60,1009.78,1997.97,1385.63,1617.40,1850.21,599.85,578.66,49.55,0000 0000 0000 0000 000000
2018-04-17 10:31:40,0.03,8.11,0.00,29.78,32.90,35.63,13.51,48.47,1009.78,1997.98,1385.01,1617.01,1849.94,599.93,578.74,49.60,0000 0000 0000 0000 000000
2018-04-17 10:36:41,0.10,8.11,0.00,29.75,32.90,35.63,13.50,48.50,1009.79,1997.99,1384.55,1616.76,1849.26,600.16,578.99,49.65,0000 0000 0000 0000 000000
2018-04-17 10:41:42,0.08,8.12,0.00,29.74,32.90,35.63,13.47,48.50,1009.78,1997.99,1383.94,1616.04,1848.83,599.96,578.80,49.70,0000 0000 0000 0000 000000
2018-04-17 10:46:44,0.10,8.12,0.00,29.71,32.90,35.62,13.54,48.55,1009.78,1997.99,1383.17,1615.78,1848.07,599.86,578.78,49.75,0000 0000 0000 0000 000000
2018-04-17 10:51:45,0.14,8.13,0.00,29.67,32.89,35.62,13.49,48.56,1009.78,1997.99,1382.35,1615.06,1847.54,599.81,578.73,49.80,0000 0000 0000 0000 000000
2018-04-17 10:56:46,0.14,8.13,0.00,29.66,32.88,35.60,13.48,48.52,1009.78,1997.99,1381.35,1614.47,1846.75,599.98,579.00,49.85,0000 0000 0000 0000 000000
2018-04-17 11:01:47,0.09,8.14,0.00,29.64,32.87,35.60,13.54,48.56,1009.75,1997.99,1380.55,1613.98,1846.01,599.94,578.83,49.90,0000 0000 0000 0000 000000
2018-04-17 11:06:48,0.12,8.15,0.00,29.61,32.87,35.59,13.52,48.57,1009.69,1997.99,1379.92,1613.26,1845.26,599.83,578.84,49.95,0000 0000 0000 0000 000000
2018-04-17 11:11:50,0.14,8.15,0.00,29.58,32.85,35.59,13.52,48.60,1009.49,1997.99,1379.09,1612.65,1844.45,600.17,579.22,50.00,0000 0000 0000 0000 000000
2018-04-17 11:16:51,0.08,8.16,0.00,29.56,32.85,35.59,13.51,48.55,1009.33,1997.99,1378.45,1612.03,1843.99,599.76,578.62,50.05,0000 0000 0000 0000 000000
2018-04-17 11:21:53,0.04,8.16,0.00,29.54,32.84,35.60,13.62,48.81,1009.30,1998.01,1378.02,1611.97,1843.61,600.20,579.24,50.10,0000 0000 0000 0000 000000
2018-04-17 11:26:54,0.09,8.17,0.00,29.51,32.82,35.58,13.57,48.68,1009.30,1998.01,1377.82,1611.32,1843.02,600.53,579.49,50.15,0000 0000 0000 0000 000000
2018-04-17 11:31:55,0.07,8.17,0.00,29.48,32.82,35.59,13.56,48.57,1009.30,1998.03,1377.08,1611.00,1842.66,599.80,578.89,50.20,0000 0000 0000 0000 000000
2018-04-17 11:36:56,0.10,8.17,0.00,29.46,32.80,35.60,13.57,48.72,1009.29,1998.05,1376.57,1610.72,1842.02,600.10,579.15,50.25,0000 0000 0000 0000 000000
2018-04-17 11:41:57,0.08,8.18,0.00,29.44,32.79,35.61,13.53,48.72,1009.29,1998.12,1376.00,1610.05,1841.65,599.68,578.86,50.30,0000 0000 0000 0000 000000
2018-04-17 11:46:59,0.13,8.19,0.00,29.41,32.77,35.65,13.56,48.68,1009.12,1998.43,1375.39,1609.98,1841.02,600.07,579.12,50.36,0000 0000 0000 0000 000000
2018-04-17 11:52:00,0.11,8.19,0.00,29.39,32.76,35.69,13.56,48.75,1008.85,1998.64,1374.97,1609.35,1840.73,600.06,579.00,50.41,0000 0000 0000 0000 000000
2018-04-17 11:57:01,0.07,8.20,0.00,29.36,32.75,35.71,13.57,48.71,1008.82,1998.61,1374.33,1609.00,1840.05,600.24,579.26,50.46,0000 0000 0000 0000 000000
2018-04-17 12:02:03,0.06,8.20,0.00,29.31,32.72,35.70,13.52,48.72,1008.81,1998.78,1373.99,1608.71,1839.79,599.90,579.02,50.51,0000 0000 0000 0000 000000
2018-04-17 12:07:04,0.16,8.21,0.00,29.28,32.71,35.67,13.59,48.80,1008.80,1998.94,1373.29,1608.08,1839.08,600.12,579.27,50.56,0000 0000 0000 0000 000000
2018-04-17 12:12:05,0.02,8.21,0.00,29.25,32.69,35.65,13.51,48.70,1008.80,1998.96,1372.92,1607.99,1838.89,599.86,579.10,50.61,0000 0000 0000 0000 000000
2018-04-17 12:17:06,0.15,8.22,0.00,29.20,32.67,35.63,13.56,48.69,1008.80,1998.98,1372.10,1607.36,1838.10,599.60,578.84,50.66,0000 0000 0000 0000 000000
2018-04-17 12:22:08,0.07,8.22,0.00,29.16,32.65,35.59,13.55,48.74,1008.80,1998.99,1371.63,1607.01,1837.76,599.91,579.22,50.71,0000 0000 0000 0000 000000
2018-04-17 12:27:09,0.07,8.22,0.00,29.12,32.62,35.57,13.54,48.75,1008.80,1998.99,1371.00,1606.69,1837.04,599.91,579.36,50.76,0000 0000 0000 0000 000000
2018-04-17 12:32:10,0.10,8.23,0.00,29.08,32.61,35.53,13.62,48.73,1008.75,1998.99,1370.27,1606.03,1836.84,600.20,579.67,50.81,0000 0000 0000 0000 000000
2018-04-17 12:37:12,0.05,8.23,0.00,29.03,32.58,35.51,13.51,48.77,1008.57,1999.00,1369.87,1605.98,1836.07,599.95,579.44,50.86,0000 0000 0000 0000 000000
2018-04-17 12:42:13,0.11,8.24,0.00,28.99,32.56,35.47,13.47,48.80,1008.43,1999.02,1369.08,1605.41,1835.87,600.03,579.36,50.91,0000 0000 0000 0000 000000
2018-04-17 12:47:14,0.10,8.24,0.00,28.97,32.53,35.45,13.65,48.88,1008.45,1999.15,1368.72,1605.01,1835.11,600.14,579.70,50.96,0000 0000 0000 0000 000000
2018-04-17 12:52:16,0.12,8.25,0.00,28.92,32.51,35.43,13.63,48.81,1008.45,1999.53,1368.03,1604.91,1834.95,600.24,579.78,51.01,0000 0000 0000 0000 000000
2018-04-17 12:57:17,0.16,8.26,0.00,28.87,32.48,35.39,13.60,48.82,1008.35,1999.88,1367.57,1604.25,1834.22,600.26,579.94,51.06,0000 0000 0000 0000 000000